Big Delta, AK

12:42 AM AKDT on August 18, 2017 (GMT -0800)
Allen Army Air Field

Weather History for PABI - October, 2012

Change the Weather History Date:

Sunday, October 28, 2012

  Actual Average Record
Temperature  
Mean Temperature 12 °F -  
Max Temperature 21 °F 20 °F 62 °F (2013)
Min Temperature 3 °F 9 °F -13 °F (2008)
Degree Days  
Heating Degree Days 53    
Moisture  
Dew Point 8 °F    
Average Humidity 80    
Maximum Humidity 92    
Minimum Humidity 56    
Precipitation  
Precipitation 0.00 in - - ()
Sea Level Pressure  
Sea Level Pressure 30.22 in    
Wind  
Wind Speed 1 mph (ESE)    
Max Wind Speed 6 mph    
Max Gust Speed -    
Visibility 10 miles    
Events      
Averages and records for this station are not official NWS values.
T = Trace of Precipitation, MM = Missing Value Source: NWS Daily Summary

Daily Weather History Graph

Daily Weather History Graph

Search for Another Location

Airport or City:

Trip Planner

Search our weather history database for the weather conditions in past years. The results will help you decide how hot, cold, wet, or windy it might be!

Date:

Astronomy

Oct. 28, 2012 Rise Set
Actual Time 9:14 AM AKDT 5:37 PM AKDT
Civil Twilight 8:22 AM AKDT 6:28 PM AKDT
Nautical Twilight 7:26 AM AKDT 7:25 PM AKDT
Astronomical Twilight 6:31 AM AKDT 8:19 PM AKDT
Moon 4:58 PM AKDT (10/28) 8:11 AM AKDT (10/28)
Length of Visible Light 10h 06m
Length of Day
8h 22m
Waxing Gibbous, 99% of the Moon is Illuminated
Oct 28
Waxing Gibbous
Oct 29
Full
Nov 6
Last Quarter
Nov 13
New
Nov 20
First Quarter

Hourly Weather History & Observations

Time (AKDT) Temp. Windchill Dew Point Humidity Pressure Visibility Wind Dir Wind Speed Gust Speed Precip Events Conditions
12:53 AM 15.1 °F - 10.9 °F 84% 30.21 in 10.0 mi Calm Calm - N/A   Overcast
1:53 AM 16.0 °F - 10.9 °F 81% 30.20 in 10.0 mi Calm Calm - N/A   Overcast
2:53 AM 17.1 °F - 12.0 °F 81% 30.20 in 10.0 mi Calm Calm - N/A   Overcast
3:53 AM 17.1 °F - 12.0 °F 81% 30.20 in 10.0 mi Calm Calm - N/A   Overcast
4:53 AM 17.1 °F - 12.0 °F 81% 30.21 in 10.0 mi Calm Calm - N/A   Overcast
5:53 AM 17.1 °F - 12.0 °F 81% 30.22 in 10.0 mi Calm Calm - N/A   Overcast
6:53 AM 15.1 °F - 10.9 °F 84% 30.22 in 10.0 mi Calm Calm - N/A   Mostly Cloudy
7:53 AM 12.0 °F - 9.0 °F 88% 30.24 in 10.0 mi Calm Calm - N/A   Scattered Clouds
8:53 AM 10.9 °F - 9.0 °F 92% 30.25 in 10.0 mi Calm Calm - N/A   Scattered Clouds
9:53 AM 8.1 °F - 3.9 °F 83% 30.26 in 10.0 mi Calm Calm - N/A   Scattered Clouds
10:53 AM 9.0 °F - 5.0 °F 84% 30.26 in 10.0 mi Calm Calm - N/A   Scattered Clouds
11:53 AM 12.9 °F 6.9 °F 9.0 °F 84% 30.26 in 10.0 mi ESE 3.5 mph - N/A   Scattered Clouds
12:53 PM 17.1 °F 10.0 °F 10.9 °F 77% 30.26 in 10.0 mi ESE 4.6 mph - N/A   Scattered Clouds
1:53 PM 19.0 °F 12.3 °F 12.0 °F 74% 30.25 in 10.0 mi ESE 4.6 mph - N/A   Scattered Clouds
2:53 PM 19.9 °F 12.1 °F 12.0 °F 71% 30.23 in 10.0 mi East 5.8 mph - N/A   Scattered Clouds
3:53 PM 19.9 °F 12.1 °F 10.9 °F 68% 30.22 in 10.0 mi East 5.8 mph - N/A   Partly Cloudy
4:53 PM 19.0 °F 13.9 °F 10.9 °F 71% 30.23 in 10.0 mi ENE 3.5 mph - N/A   Partly Cloudy
5:53 PM 16.0 °F - 10.0 °F 77% 30.22 in 10.0 mi Calm Calm - N/A   Scattered Clouds
6:53 PM 12.0 °F 5.9 °F 8.1 °F 84% 30.22 in 10.0 mi ESE 3.5 mph - N/A   Scattered Clouds
7:53 PM 9.0 °F - 5.0 °F 84% 30.22 in 10.0 mi Calm Calm - N/A   Mostly Cloudy
8:53 PM 7.0 °F 0.1 °F 3.9 °F 87% 30.21 in 10.0 mi SE 3.5 mph - N/A   Scattered Clouds
9:31 PM 5.0 °F - 1.4 °F 85% 30.06 in 10.0 mi Calm Calm - N/A   Scattered Clouds
9:53 PM 7.0 °F -1.7 °F 3.0 °F 84% 30.20 in 10.0 mi South 4.6 mph - N/A   Clear
10:53 PM 3.0 °F - -0.0 °F 87% 30.19 in 10.0 mi Calm Calm - N/A   Clear
11:53 PM 5.0 °F - 1.0 °F 84% 30.16 in 10.0 mi Calm Calm - N/A   Clear